APJ313 RJBB-RJAA

Flight info

Callsign APJ313
Flight time N/A
Altitude 37000
Route TOMOH DOPDA KEC Y43 ISEBI Y81 RUTAS
Aircraft A320/M-SDE3FGHIRWY/LB1

Departure

Time 2026-05-06 13:03
Airport Kansai International Airport (RJBB)

Arrival

Time N/A
Airport Narita International Airport (RJAA)
Time Latitude Longitude Altitude Speed Heading
2026-05-06 12:42 34.43619 135.23000 29 ft 0 kts 82°
2026-05-06 12:54 34.43618 135.23003 29 ft 2 kts 94°
2026-05-06 12:54 34.43596 135.22974 29 ft 9 kts 259°
2026-05-06 12:55 34.43569 135.22921 29 ft 7 kts 205°
2026-05-06 12:55 34.43499 135.22930 29 ft 14 kts 203°
2026-05-06 12:55 34.43498 135.22835 29 ft 12 kts 313°
2026-05-06 12:55 34.43575 135.22759 29 ft 18 kts 321°
2026-05-06 12:56 34.43694 135.22645 29 ft 19 kts 320°
2026-05-06 12:56 34.43773 135.22562 29 ft 12 kts 305°
2026-05-06 12:56 34.43849 135.22485 29 ft 16 kts 300°
2026-05-06 12:56 34.43832 135.22414 29 ft 13 kts 232°
2026-05-06 12:57 34.43780 135.22333 29 ft 11 kts 232°
2026-05-06 12:57 34.43705 135.22223 29 ft 23 kts 230°
2026-05-06 12:57 34.43599 135.22068 29 ft 25 kts 230°
2026-05-06 12:57 34.43485 135.21903 29 ft 26 kts 231°
2026-05-06 12:58 34.43368 135.21727 29 ft 27 kts 231°
2026-05-06 12:58 34.43246 135.21544 29 ft 29 kts 231°
2026-05-06 12:58 34.43120 135.21358 29 ft 28 kts 231°
2026-05-06 12:58 34.43000 135.21177 29 ft 27 kts 230°
2026-05-06 12:59 34.42879 135.20999 29 ft 28 kts 230°
2026-05-06 12:59 34.42759 135.20821 29 ft 22 kts 234°
2026-05-06 12:59 34.42742 135.20756 29 ft 0 kts 287°
2026-05-06 13:01 34.42744 135.20753 29 ft 3 kts 292°
2026-05-06 13:01 34.42795 135.20705 29 ft 13 kts 321°
2026-05-06 13:02 34.42875 135.20654 26 ft 11 kts 24°
2026-05-06 13:02 34.42944 135.20748 26 ft 27 kts 49°
2026-05-06 13:02 34.43227 135.21170 31 ft 99 kts 51°
2026-05-06 13:02 34.43784 135.22001 32 ft 153 kts 51°
2026-05-06 13:03 34.44545 135.23129 215 ft 181 kts 50°
2026-05-06 13:03 34.45414 135.24204 925 ft 181 kts 27°
2026-05-06 13:03 34.46648 135.24337 1606 ft 184 kts 342°
2026-05-06 13:03 34.47806 135.23632 2191 ft 194 kts 323°
2026-05-06 13:04 34.48721 135.22337 2482 ft 217 kts 291°
2026-05-06 13:04 34.48922 135.20466 2878 ft 238 kts 261°
2026-05-06 13:04 34.48671 135.18389 3417 ft 257 kts 259°
2026-05-06 13:04 34.48401 135.16222 4302 ft 262 kts 260°
2026-05-06 13:05 34.48026 135.14051 5228 ft 265 kts 246°
2026-05-06 13:05 34.46957 135.12244 6091 ft 269 kts 219°
2026-05-06 13:05 34.45329 135.11090 6940 ft 274 kts 207°
2026-05-06 13:05 34.43615 135.10047 7829 ft 277 kts 207°
2026-05-06 13:06 34.41905 135.09013 8683 ft 281 kts 207°
2026-05-06 13:06 34.40144 135.07950 9554 ft 284 kts 207°
2026-05-06 13:06 34.38362 135.06872 10300 ft 292 kts 207°
2026-05-06 13:06 34.36469 135.05720 10572 ft 316 kts 208°
2026-05-06 13:07 34.34434 135.04474 10804 ft 340 kts 208°
2026-05-06 13:07 34.32253 135.03139 10970 ft 363 kts 207°
2026-05-06 13:07 34.29837 135.02028 11277 ft 379 kts 196°
2026-05-06 13:07 34.27211 135.01496 11878 ft 387 kts 185°
2026-05-06 13:08 34.24500 135.01593 12531 ft 393 kts 174°
2026-05-06 13:08 34.21803 135.02255 13190 ft 398 kts 169°
2026-05-06 13:08 34.19095 135.02997 13834 ft 401 kts 169°
2026-05-06 13:08 34.16358 135.03748 14378 ft 405 kts 169°
2026-05-06 13:09 34.13598 135.04501 14897 ft 409 kts 169°
2026-05-06 13:09 34.10808 135.05257 15421 ft 413 kts 169°
2026-05-06 13:09 34.07991 135.06020 15932 ft 416 kts 170°
2026-05-06 13:09 34.05153 135.06787 16440 ft 420 kts 170°
2026-05-06 13:10 34.02289 135.07558 16929 ft 424 kts 170°
2026-05-06 13:10 33.99400 135.08336 17427 ft 427 kts 170°
2026-05-06 13:10 33.96494 135.09131 17930 ft 430 kts 169°
2026-05-06 13:10 33.93643 135.10317 18407 ft 438 kts 159°
2026-05-06 13:11 33.90969 135.12118 18809 ft 445 kts 148°
2026-05-06 13:11 33.88591 135.14468 19216 ft 452 kts 138°
2026-05-06 13:11 33.86521 135.17346 19615 ft 457 kts 131°
2026-05-06 13:11 33.84532 135.20346 20036 ft 460 kts 132°
2026-05-06 13:12 33.82524 135.23360 20442 ft 463 kts 132°
2026-05-06 13:12 33.80507 135.26376 20829 ft 465 kts 133°
2026-05-06 13:12 33.78468 135.29424 21210 ft 468 kts 133°
2026-05-06 13:12 33.76420 135.32486 21571 ft 471 kts 133°
2026-05-06 13:13 33.74364 135.35558 21932 ft 474 kts 133°
2026-05-06 13:13 33.72288 135.38653 22285 ft 477 kts 134°
2026-05-06 13:13 33.70198 135.41758 22638 ft 480 kts 134°
2026-05-06 13:13 33.68093 135.44886 22995 ft 482 kts 134°
2026-05-06 13:14 33.65983 135.48018 23332 ft 485 kts 134°
2026-05-06 13:14 33.63852 135.51178 23652 ft 487 kts 135°
2026-05-06 13:14 33.61716 135.54351 23948 ft 490 kts 135°
2026-05-06 13:14 33.59576 135.57535 24218 ft 492 kts 135°
2026-05-06 13:15 33.57425 135.60736 24478 ft 493 kts 135°
2026-05-06 13:15 33.55266 135.63941 24733 ft 495 kts 135°
2026-05-06 13:15 33.53096 135.67155 24958 ft 497 kts 135°
2026-05-06 13:15 33.50921 135.70385 25213 ft 500 kts 134°
2026-05-06 13:16 33.49004 135.73906 25458 ft 511 kts 124°
2026-05-06 13:16 33.47581 135.77859 25702 ft 522 kts 113°
2026-05-06 13:16 33.46757 135.82127 25976 ft 532 kts 102°
2026-05-06 13:16 33.46583 135.86509 26330 ft 537 kts 90°
2026-05-06 13:17 33.47053 135.90957 26679 ft 541 kts 79°
2026-05-06 13:17 33.47908 135.95346 27022 ft 541 kts 78°
2026-05-06 13:17 33.48769 135.99725 27395 ft 540 kts 79°
2026-05-06 13:17 33.49625 136.04090 27802 ft 538 kts 79°
2026-05-06 13:18 33.50479 136.08449 28206 ft 537 kts 79°
2026-05-06 13:18 33.51337 136.12841 28600 ft 536 kts 79°